Location: Dompnac
(44.5644°N, 4.1026°E)
Time: 11:42:53
(UTC+00:00)

NOSS 2-2 (E) - Pass Details

Date: 19 September 2020
Orbit: 468 x 1739 km, 63.3° (Epoch: 26 October)

Event Time Altitude Azimuth Distance (km) Brightness Sun altitude
Rises 18:25:22 0° 206° (SSW) 2,510 6.9 -7.8°
Reaches altitude 10° 18:27:27 10° 202° (SSW) 1,619 5.9 -8.2°
Maximum altitude 18:30:52 57° 123° (ESE) 572 3.1 -8.8°
Drops below altitude 10° 18:34:36 10° 44° (NE) 1,779 5.6 -9.4°
Sets 18:37:00 0° 41° (NE) 2,793 6.6 -9.8°
